Time,TemperatureF,DewpointF,PressureIn,WindDirection,WindDirectionDegrees,WindSpeedMPH,WindSpeedGustMPH,Humidity,HourlyPrecipIn,Conditions,Clouds,dailyrainin,SoftwareType,DateUTC
2013-05-15 00:02:00,70.7,57.9,29.92,NW,315,4.6,4.6,64,0.00,CLR,SKC,0.00,WeatherDisplay:10.37,2013-05-15 05:02:00,
2013-05-15 00:07:00,70.5,57.8,29.92,WSW,248,5.0,5.0,64,0.00,CLR,SKC,0.00,WeatherDisplay:10.37,2013-05-15 05:07:00,
2013-05-15 00:12:00,70.5,57.8,29.92,SSW,202,4.6,4.6,64,0.00,CLR,SKC,0.00,WeatherDisplay:10.37,2013-05-15 05:12:00,
2013-05-15 00:17:00,70.3,57.6,29.91,NW,315,4.6,4.6,64,0.00,CLR,SKC,0.00,WeatherDisplay:10.37,2013-05-15 05:17:00,
2013-05-15 00:22:00,70.2,57.4,29.91,NE,45,2.3,2.6,64,0.00,CLR,SKC,0.00,WeatherDisplay:10.37,2013-05-15 05:22:00,
2013-05-15 00:27:00,70.3,57.6,29.91,SW,225,4.6,4.6,64,0.00,CLR,SKC,0.00,WeatherDisplay:10.37,2013-05-15 05:27:00,
2013-05-15 00:32:00,70.3,57.6,29.91,WSW,248,7.2,7.2,64,0.00,CLR,SKC,0.00,WeatherDisplay:10.37,2013-05-15 05:32:00,
2013-05-15 00:37:00,70.3,57.6,29.91,WSW,248,2.3,2.6,64,0.00,CLR,SKC,0.00,WeatherDisplay:10.37,2013-05-15 05:37:00,
2013-05-15 00:42:00,70.0,57.2,29.91,SSE,158,4.6,4.6,64,0.00,CLR,SKC,0.00,WeatherDisplay:10.37,2013-05-15 05:42:00,
2013-05-15 00:47:00,70.0,57.2,29.91,West,270,4.6,4.6,64,0.00,CLR,SKC,0.00,WeatherDisplay:10.37,2013-05-15 05:47:00,
2013-05-15 00:52:00,69.8,57.1,29.92,NW,315,3.5,3.5,64,0.00,CLR,SKC,0.00,WeatherDisplay:10.37,2013-05-15 05:52:00,
2013-05-15 00:57:00,69.6,57.3,29.92,South,180,2.3,2.7,65,0.00,CLR,SKC,0.00,WeatherDisplay:10.37,2013-05-15 05:57:00,
2013-05-15 01:02:00,69.6,57.3,29.92,SSW,202,3.5,3.5,65,0.00,CLR,SKC,0.00,WeatherDisplay:10.37,2013-05-15 06:02:00,
2013-05-15 01:07:00,69.6,57.3,29.92,SW,225,6.9,6.9,65,0.00,CLR,SKC,0.00,WeatherDisplay:10.37,2013-05-15 06:07:00,
2013-05-15 01:12:00,69.3,57.0,29.92,SW,225,5.8,5.8,65,0.00,CLR,SKC,0.00,WeatherDisplay:10.37,2013-05-15 06:12:00,
2013-05-15 01:17:00,69.3,57.0,29.92,West,270,2.4,2.4,65,0.00,CLR,SKC,0.00,WeatherDisplay:10.37,2013-05-15 06:17:00,
2013-05-15 01:22:00,69.1,56.8,29.92,SW,225,8.6,8.6,65,0.00,CLR,SKC,0.00,WeatherDisplay:10.37,2013-05-15 06:22:00,
2013-05-15 01:27:00,69.3,57.0,29.92,SW,225,6.0,6.0,65,0.00,CLR,SKC,0.00,WeatherDisplay:10.37,2013-05-15 06:27:00,
2013-05-15 01:32:00,68.9,56.6,29.92,WSW,248,5.8,5.8,65,0.00,CLR,SKC,0.00,WeatherDisplay:10.37,2013-05-15 06:32:00,
2013-05-15 01:37:00,68.9,56.6,29.92,ENE,68,3.5,3.5,65,0.00,CLR,SKC,0.00,WeatherDisplay:10.37,2013-05-15 06:37:00,
2013-05-15 01:42:00,68.9,56.6,29.92,SSW,202,5.8,5.8,65,0.00,CLR,SKC,0.00,WeatherDisplay:10.37,2013-05-15 06:42:00,
2013-05-15 01:47:00,68.5,56.7,29.92,SSE,158,2.3,2.4,66,0.00,CLR,SKC,0.00,WeatherDisplay:10.37,2013-05-15 06:47:00,
2013-05-15 01:52:00,68.5,56.7,29.93,ESE,112,1.2,2.3,66,0.00,CLR,SKC,0.00,WeatherDisplay:10.37,2013-05-15 06:52:00,
2013-05-15 01:57:00,68.4,56.6,29.93,NW,315,1.4,2.0,66,0.00,CLR,SKC,0.00,WeatherDisplay:10.37,2013-05-15 06:57:00,
2013-05-15 02:02:00,68.5,56.7,29.93,South,180,1.2,1.4,66,0.00,CLR,SKC,0.00,WeatherDisplay:10.37,2013-05-15 07:02:00,
2013-05-15 02:07:00,68.4,56.6,29.93,SE,135,2.3,2.3,66,0.00,CLR,SKC,0.00,WeatherDisplay:10.37,2013-05-15 07:07:00,
2013-05-15 02:12:00,68.2,56.4,29.93,SSE,158,3.5,3.5,66,0.00,CLR,SKC,0.00,WeatherDisplay:10.37,2013-05-15 07:12:00,
2013-05-15 02:17:00,68.0,56.2,29.93,SSW,202,2.3,2.3,66,0.00,CLR,SKC,0.00,WeatherDisplay:10.37,2013-05-15 07:17:00,
2013-05-15 02:22:00,68.2,56.4,29.93,WNW,292,4.3,4.3,66,0.00,CLR,SKC,0.00,WeatherDisplay:10.37,2013-05-15 07:22:00,
2013-05-15 02:27:00,68.2,56.4,29.93,SSW,202,4.6,4.6,66,0.00,CLR,SKC,0.00,WeatherDisplay:10.37,2013-05-15 07:27:00,
2013-05-15 02:32:00,67.8,56.0,29.93,WSW,248,2.3,2.3,66,0.00,CLR,SKC,0.00,WeatherDisplay:10.37,2013-05-15 07:32:00,
2013-05-15 02:37:00,67.8,56.0,29.93,West,270,2.3,2.3,66,0.00,CLR,SKC,0.00,WeatherDisplay:10.37,2013-05-15 07:37:00,
2013-05-15 02:42:00,67.8,56.0,29.93,NW,315,2.3,2.3,66,0.00,CLR,SKC,0.00,WeatherDisplay:10.37,2013-05-15 07:42:00,
2013-05-15 02:47:00,67.5,55.7,29.93,SSW,202,8.1,8.1,66,0.00,CLR,SKC,0.00,WeatherDisplay:10.37,2013-05-15 07:47:00,
2013-05-15 02:52:00,67.5,56.1,29.93,SW,225,2.3,2.3,67,0.00,CLR,SKC,0.00,WeatherDisplay:10.37,2013-05-15 07:52:00,
2013-05-15 02:58:00,67.5,55.7,29.93,SW,225,3.5,3.5,66,0.00,CLR,SKC,0.00,WeatherDisplay:10.37,2013-05-15 07:58:00,
2013-05-15 03:03:00,67.3,55.5,29.93,South,180,2.3,2.3,66,0.00,CLR,SKC,0.00,WeatherDisplay:10.37,2013-05-15 08:03:00,
2013-05-15 03:08:00,67.5,55.7,29.93,NNW,338,2.3,2.3,66,0.00,CLR,SKC,0.00,WeatherDisplay:10.37,2013-05-15 08:08:00,
2013-05-15 03:13:00,67.1,55.8,29.93,ENE,68,1.9,1.9,67,0.00,CLR,SKC,0.00,WeatherDisplay:10.37,2013-05-15 08:13:00,
2013-05-15 03:18:00,67.1,55.4,29.93,SE,135,2.3,2.3,66,0.00,CLR,SKC,0.00,WeatherDisplay:10.37,2013-05-15 08:18:00,
2013-05-15 03:23:00,66.9,55.2,29.93,SW,225,1.2,2.0,66,0.00,CLR,SKC,0.00,WeatherDisplay:10.37,2013-05-15 08:23:00,
2013-05-15 03:28:00,67.1,55.8,29.93,WSW,248,2.3,2.3,67,0.00,CLR,SKC,0.00,WeatherDisplay:10.37,2013-05-15 08:28:00,
2013-05-15 03:33:00,66.7,55.4,29.93,SW,225,3.5,3.5,67,0.00,CLR,SKC,0.00,WeatherDisplay:10.37,2013-05-15 08:33:00,
2013-05-15 03:38:00,66.6,55.3,29.93,West,270,2.3,2.3,67,0.00,CLR,SKC,0.00,WeatherDisplay:10.37,2013-05-15 08:38:00,
2013-05-15 03:43:00,66.4,55.1,29.93,SSW,202,3.5,3.5,67,0.00,CLR,SKC,0.00,WeatherDisplay:10.37,2013-05-15 08:43:00,
2013-05-15 03:48:00,66.4,55.1,29.93,SW,225,2.3,2.3,67,0.00,CLR,SKC,0.00,WeatherDisplay:10.37,2013-05-15 08:48:00,
2013-05-15 03:53:00,66.2,54.9,29.93,SW,225,3.5,3.5,67,0.00,CLR,SKC,0.00,WeatherDisplay:10.37,2013-05-15 08:53:00,
2013-05-15 03:58:00,66.4,55.1,29.93,SSW,202,3.5,3.5,67,0.00,CLR,SKC,0.00,WeatherDisplay:10.37,2013-05-15 08:58:00,
2013-05-15 04:03:00,66.0,54.7,29.93,SSW,202,4.6,4.6,67,0.00,CLR,SKC,0.00,WeatherDisplay:10.37,2013-05-15 09:03:00,
2013-05-15 04:08:00,66.0,54.7,29.93,West,270,1.4,1.9,67,0.00,CLR,SKC,0.00,WeatherDisplay:10.37,2013-05-15 09:08:00,
2013-05-15 04:13:00,66.0,55.2,29.94,WSW,248,1.6,1.6,68,0.00,CLR,SKC,0.00,WeatherDisplay:10.37,2013-05-15 09:13:00,
2013-05-15 04:18:00,65.7,54.8,29.94,SSW,202,2.3,2.3,68,0.00,CLR,SKC,0.00,WeatherDisplay:10.37,2013-05-15 09:18:00,
2013-05-15 04:23:00,65.5,54.6,29.94,SSE,158,2.3,2.3,68,0.00,CLR,SKC,0.00,WeatherDisplay:10.37,2013-05-15 09:23:00,
2013-05-15 04:28:00,65.5,54.6,29.94,SSW,202,2.3,2.3,68,0.00,CLR,SKC,0.00,WeatherDisplay:10.37,2013-05-15 09:28:00,
2013-05-15 04:33:00,65.3,54.5,29.95,SW,225,2.4,2.4,68,0.00,CLR,SKC,0.00,WeatherDisplay:10.37,2013-05-15 09:33:00,
2013-05-15 04:38:00,65.3,54.9,29.95,ENE,68,0.0,1.3,69,0.00,CLR,SKC,0.00,WeatherDisplay:10.37,2013-05-15 09:38:00,
2013-05-15 04:43:00,64.9,54.5,29.95,SSW,202,3.5,3.5,69,0.00,CLR,SKC,0.00,WeatherDisplay:10.37,2013-05-15 09:43:00,
2013-05-15 04:48:00,64.9,54.5,29.95,WSW,248,0.0,0.4,69,0.00,CLR,SKC,0.00,WeatherDisplay:10.37,2013-05-15 09:48:00,
2013-05-15 04:53:00,64.9,54.5,29.95,WSW,248,1.2,1.2,69,0.00,CLR,SKC,0.00,WeatherDisplay:10.37,2013-05-15 09:53:00,
2013-05-15 04:58:00,64.6,54.2,29.95,SSE,158,0.0,0.4,69,0.00,CLR,SKC,0.00,WeatherDisplay:10.37,2013-05-15 09:58:00,
2013-05-15 05:03:00,64.4,54.0,29.95,SSE,158,3.5,3.5,69,0.00,CLR,SKC,0.00,WeatherDisplay:10.37,2013-05-15 10:03:00,
2013-05-15 05:08:00,64.6,54.6,29.95,SW,225,2.3,2.3,70,0.00,CLR,SKC,0.00,WeatherDisplay:10.37,2013-05-15 10:08:00,
2013-05-15 05:13:00,64.0,54.1,29.95,SSW,202,3.5,3.5,70,0.00,CLR,SKC,0.00,WeatherDisplay:10.37,2013-05-15 10:13:00,
2013-05-15 05:18:00,64.0,54.1,29.95,SSE,158,2.3,2.3,70,0.00,CLR,SKC,0.00,WeatherDisplay:10.37,2013-05-15 10:18:00,
2013-05-15 05:23:00,64.0,54.4,29.95,NE,45,1.4,1.7,71,0.00,CLR,SKC,0.00,WeatherDisplay:10.37,2013-05-15 10:23:00,
2013-05-15 05:28:00,63.9,54.3,29.95,SW,225,1.4,1.4,71,0.00,CLR,SKC,0.00,WeatherDisplay:10.37,2013-05-15 10:28:00,
2013-05-15 05:33:00,63.9,54.3,29.96,SSW,202,7.3,7.3,71,0.00,CLR,SKC,0.00,WeatherDisplay:10.37,2013-05-15 10:33:00,
2013-05-15 05:38:00,63.5,53.9,29.96,SSE,158,1.2,1.4,71,0.00,CLR,SKC,0.00,WeatherDisplay:10.37,2013-05-15 10:38:00,
2013-05-15 05:43:00,63.5,53.9,29.96,SSW,202,2.3,2.3,71,0.00,CLR,SKC,0.00,WeatherDisplay:10.37,2013-05-15 10:43:00,
2013-05-15 05:48:00,63.5,53.9,29.96,NW,315,0.0,1.4,71,0.00,CLR,SKC,0.00,WeatherDisplay:10.37,2013-05-15 10:48:00,
2013-05-15 05:53:00,63.5,53.9,29.97,SW,225,2.3,2.3,71,0.00,CLR,SKC,0.00,WeatherDisplay:10.37,2013-05-15 10:53:00,
2013-05-15 05:58:00,63.5,53.9,29.97,WSW,248,3.5,3.5,71,0.00,CLR,SKC,0.00,WeatherDisplay:10.37,2013-05-15 10:58:00,
2013-05-15 06:03:00,63.1,54.0,29.97,SE,135,2.3,2.3,72,0.00,CLR,SKC,0.00,WeatherDisplay:10.37,2013-05-15 11:03:00,
2013-05-15 06:09:00,63.1,54.0,29.97,SE,135,1.4,1.4,72,0.00,CLR,SKC,0.00,WeatherDisplay:10.37,2013-05-15 11:09:00,
2013-05-15 06:15:00,63.0,53.8,29.97,SE,135,1.2,1.2,72,0.00,CLR,SKC,0.00,WeatherDisplay:10.37,2013-05-15 11:15:00,
2013-05-15 06:20:00,63.1,54.0,29.97,SE,135,1.2,1.2,72,0.00,CLR,SKC,0.00,WeatherDisplay:10.37,2013-05-15 11:20:00,
2013-05-15 06:25:00,63.1,54.0,29.97,SSW,192,1.0,5.0,72,0.00,CLR,SKC,0.00,WeatherDisplay:10.37,2013-05-15 11:25:00,
2013-05-15 06:30:00,63.1,54.3,29.97,SE,135,2.3,2.3,73,0.00,CLR,SKC,0.00,WeatherDisplay:10.37,2013-05-15 11:30:00,
2013-05-15 06:35:00,63.1,54.3,29.98,SSW,202,4.6,4.6,73,0.00,CLR,SKC,0.00,WeatherDisplay:10.37,2013-05-15 11:35:00,
2013-05-15 06:40:00,63.0,54.2,29.98,SW,225,2.3,2.3,73,0.00,CLR,SKC,0.00,WeatherDisplay:10.37,2013-05-15 11:40:00,
2013-05-15 06:45:00,63.1,54.3,29.98,West,270,2.4,2.4,73,0.00,CLR,SKC,0.00,WeatherDisplay:10.37,2013-05-15 11:45:00,
2013-05-15 06:51:00,63.3,54.5,29.98,SE,135,0.0,0.4,73,0.00,CLR,SKC,0.00,WeatherDisplay:10.37,2013-05-15 11:51:00,
2013-05-15 06:56:00,63.5,54.7,29.98,ESE,112,0.0,0.4,73,0.00,CLR,SKC,0.00,WeatherDisplay:10.37,2013-05-15 11:56:00,
2013-05-15 07:01:00,63.3,54.9,29.98,SSE,158,3.5,3.5,74,0.00,CLR,SKC,0.00,WeatherDisplay:10.37,2013-05-15 12:01:00,
2013-05-15 07:06:00,63.7,54.9,29.98,SSW,202,0.0,1.0,73,0.00,CLR,SKC,0.00,WeatherDisplay:10.37,2013-05-15 12:06:00,
2013-05-15 07:11:00,63.9,55.4,29.98,NNE,22,2.3,2.3,74,0.00,CLR,SKC,0.00,WeatherDisplay:10.37,2013-05-15 12:11:00,
2013-05-15 07:17:00,64.0,55.2,29.98,West,270,2.3,2.3,73,0.00,CLR,SKC,0.00,WeatherDisplay:10.37,2013-05-15 12:17:00,
2013-05-15 07:22:00,64.2,55.4,29.98,SW,225,3.9,3.9,73,0.00,CLR,SKC,0.00,WeatherDisplay:10.37,2013-05-15 12:22:00,
2013-05-15 07:27:00,64.6,55.7,29.98,SW,225,2.3,2.3,73,0.00,CLR,SKC,0.00,WeatherDisplay:10.37,2013-05-15 12:27:00,
2013-05-15 07:32:00,64.8,55.5,29.99,SSW,202,4.6,4.6,72,0.00,CLR,SKC,0.00,WeatherDisplay:10.37,2013-05-15 12:32:00,
2013-05-15 07:38:00,65.1,56.2,29.99,NE,45,2.3,2.3,73,0.00,CLR,SKC,0.00,WeatherDisplay:10.37,2013-05-15 12:38:00,
2013-05-15 07:43:00,65.3,56.0,29.99,SSW,202,6.9,6.9,72,0.00,CLR,SKC,0.00,WeatherDisplay:10.37,2013-05-15 12:43:00,
2013-05-15 07:48:00,65.5,56.2,29.99,South,180,2.4,2.4,72,0.00,CLR,SKC,0.00,WeatherDisplay:10.37,2013-05-15 12:48:00,
2013-05-15 07:53:00,65.8,56.2,29.99,SW,225,4.6,4.6,71,0.00,CLR,SKC,0.00,WeatherDisplay:10.37,2013-05-15 12:53:00,
2013-05-15 07:58:00,66.2,56.9,29.99,SSW,202,6.5,6.5,72,0.00,CLR,SKC,0.00,WeatherDisplay:10.37,2013-05-15 12:58:00,
2013-05-15 08:03:00,66.4,56.7,29.99,SW,225,3.5,3.5,71,0.00,CLR,SKC,0.00,WeatherDisplay:10.37,2013-05-15 13:03:00,
2013-05-15 08:08:00,66.7,57.0,29.99,West,270,3.5,3.5,71,0.00,CLR,SKC,0.00,WeatherDisplay:10.37,2013-05-15 13:08:00,
2013-05-15 08:14:00,66.9,56.8,29.99,WSW,248,2.3,2.3,70,0.00,CLR,SKC,0.00,WeatherDisplay:10.37,2013-05-15 13:14:00,
2013-05-15 08:19:00,67.5,57.7,29.99,SSE,158,3.5,3.5,71,0.00,CLR,SKC,0.00,WeatherDisplay:10.37,2013-05-15 13:19:00,
2013-05-15 08:24:00,67.8,57.7,29.99,SSE,158,0.0,1.4,70,0.00,CLR,SKC,0.00,WeatherDisplay:10.37,2013-05-15 13:24:00,
2013-05-15 08:29:00,68.2,58.0,29.99,NW,315,2.4,2.4,70,0.00,CLR,SKC,0.00,WeatherDisplay:10.37,2013-05-15 13:29:00,
2013-05-15 08:35:00,68.4,58.2,29.99,SW,225,3.5,3.5,70,0.00,CLR,SKC,0.00,WeatherDisplay:10.37,2013-05-15 13:35:00,
2013-05-15 08:40:00,68.7,58.1,29.99,South,175,3.0,7.0,69,0.00,CLR,SKC,0.00,WeatherDisplay:10.37,2013-05-15 13:40:00,
2013-05-15 08:45:00,69.3,58.7,29.99,WSW,248,3.5,3.5,69,0.00,CLR,SKC,0.00,WeatherDisplay:10.37,2013-05-15 13:45:00,
2013-05-15 08:50:00,69.6,58.6,29.99,SSW,202,2.7,3.0,68,0.00,CLR,SKC,0.00,WeatherDisplay:10.37,2013-05-15 13:50:00,
2013-05-15 08:55:00,70.0,58.5,29.99,SW,225,2.7,3.5,67,0.00,CLR,SKC,0.00,WeatherDisplay:10.37,2013-05-15 13:55:00,
2013-05-15 09:00:00,70.3,58.4,29.99,WSW,248,3.5,3.5,66,0.00,CLR,SKC,0.00,WeatherDisplay:10.37,2013-05-15 14:00:00,
2013-05-15 09:05:00,70.7,58.8,29.99,WNW,292,3.5,3.5,66,0.00,CLR,SKC,0.00,WeatherDisplay:10.37,2013-05-15 14:05:00,
2013-05-15 09:11:00,71.2,59.3,29.99,SSE,158,3.5,3.5,66,0.00,CLR,SKC,0.00,WeatherDisplay:10.37,2013-05-15 14:11:00,
2013-05-15 09:16:00,71.8,58.9,29.99,SW,225,4.9,4.9,64,0.00,CLR,SKC,0.00,WeatherDisplay:10.37,2013-05-15 14:16:00,
2013-05-15 09:22:00,71.8,58.9,29.99,SE,135,2.3,3.3,64,0.00,CLR,SKC,0.00,WeatherDisplay:10.37,2013-05-15 14:22:00,
2013-05-15 09:27:00,72.3,59.5,29.99,WSW,248,6.9,6.9,64,0.00,CLR,SKC,0.00,WeatherDisplay:10.37,2013-05-15 14:27:00,
2013-05-15 09:32:00,72.7,60.2,29.99,WSW,248,2.3,3.0,65,0.00,CLR,SKC,0.00,WeatherDisplay:10.37,2013-05-15 14:32:00,
2013-05-15 09:37:00,73.0,60.6,29.99,West,270,3.5,3.5,65,0.00,CLR,SKC,0.00,WeatherDisplay:10.37,2013-05-15 14:37:00,
2013-05-15 09:43:00,73.2,60.7,29.99,North,360,2.3,2.4,65,0.00,CLR,SKC,0.00,WeatherDisplay:10.37,2013-05-15 14:43:00,
2013-05-15 09:48:00,73.4,60.0,29.99,WSW,248,8.1,8.1,63,0.00,CLR,SKC,0.00,WeatherDisplay:10.37,2013-05-15 14:48:00,
2013-05-15 09:53:00,73.6,59.8,29.99,NW,315,5.8,5.8,62,0.00,CLR,SKC,0.00,WeatherDisplay:10.37,2013-05-15 14:53:00,
2013-05-15 09:59:00,73.8,59.5,29.99,SW,225,6.9,6.9,61,0.00,CLR,SKC,0.00,WeatherDisplay:10.37,2013-05-15 14:59:00,
2013-05-15 10:04:00,74.3,59.0,29.99,SE,135,6.0,6.0,59,0.00,CLR,SKC,0.00,WeatherDisplay:10.37,2013-05-15 15:04:00,
2013-05-15 10:09:00,74.3,60.0,29.99,SSE,158,5.8,5.8,61,0.00,CLR,SKC,0.00,WeatherDisplay:10.37,2013-05-15 15:09:00,
2013-05-15 10:15:00,74.5,59.7,29.99,WSW,246,5.0,10.0,60,0.00,CLR,SKC,0.00,WeatherDisplay:10.37,2013-05-15 15:15:00,
2013-05-15 10:20:00,74.8,60.0,29.99,SW,231,5.0,5.0,60,0.00,CLR,SKC,0.00,WeatherDisplay:10.37,2013-05-15 15:20:00,
2013-05-15 10:26:00,74.8,59.5,29.99,SW,225,10.4,10.4,59,0.00,CLR,SKC,0.00,WeatherDisplay:10.37,2013-05-15 15:26:00,
2013-05-15 10:31:00,75.2,59.9,29.99,SSW,202,9.2,9.2,59,0.00,CLR,SKC,0.00,WeatherDisplay:10.37,2013-05-15 15:31:00,
2013-05-15 10:36:00,75.6,60.7,29.99,SSW,202,5.8,5.8,60,0.00,CLR,SKC,0.00,WeatherDisplay:10.37,2013-05-15 15:36:00,
2013-05-15 10:41:00,75.6,59.7,29.99,NW,315,4.6,4.6,58,0.00,CLR,SKC,0.00,WeatherDisplay:10.37,2013-05-15 15:41:00,
2013-05-15 10:46:00,75.9,59.6,29.99,NW,315,3.5,3.5,57,0.00,CLR,SKC,0.00,WeatherDisplay:10.37,2013-05-15 15:46:00,
2013-05-15 10:52:00,76.1,59.8,29.99,SSW,202,2.3,2.6,57,0.00,CLR,SKC,0.00,WeatherDisplay:10.37,2013-05-15 15:52:00,
2013-05-15 10:57:00,76.5,60.6,29.99,SSE,158,6.9,6.9,58,0.00,CLR,SKC,0.00,WeatherDisplay:10.37,2013-05-15 15:57:00,
2013-05-15 11:02:00,76.8,59.4,29.99,East,90,4.6,4.6,55,0.00,CLR,SKC,0.00,WeatherDisplay:10.37,2013-05-15 16:02:00,
2013-05-15 11:07:00,76.6,59.3,29.99,SSE,158,8.1,8.1,55,0.00,CLR,SKC,0.00,WeatherDisplay:10.37,2013-05-15 16:07:00,
2013-05-15 11:13:00,77.2,59.2,29.99,SSW,202,5.8,5.8,54,0.00,CLR,SKC,0.00,WeatherDisplay:10.37,2013-05-15 16:13:00,
2013-05-15 11:18:00,77.0,58.6,29.99,SSW,202,6.9,6.9,53,0.00,CLR,SKC,0.00,WeatherDisplay:10.37,2013-05-15 16:18:00,
2013-05-15 11:23:00,77.5,60.1,29.99,SSE,158,6.9,6.9,55,0.00,CLR,SKC,0.00,WeatherDisplay:10.37,2013-05-15 16:23:00,
2013-05-15 11:29:00,77.7,59.2,29.99,WSW,248,9.2,9.2,53,0.00,CLR,SKC,0.00,WeatherDisplay:10.37,2013-05-15 16:29:00,
2013-05-15 11:34:00,77.7,57.6,29.98,SW,225,9.2,9.2,50,0.00,CLR,SKC,0.00,WeatherDisplay:10.37,2013-05-15 16:34:00,
2013-05-15 11:39:00,78.1,57.9,29.98,South,180,8.5,8.5,50,0.00,CLR,SKC,0.00,WeatherDisplay:10.37,2013-05-15 16:39:00,
2013-05-15 11:44:00,78.4,58.3,29.98,SSE,158,4.6,4.6,50,0.00,CLR,SKC,0.00,WeatherDisplay:10.37,2013-05-15 16:44:00,
2013-05-15 11:50:00,78.4,58.3,29.98,SE,135,2.3,4.0,50,0.00,CLR,SKC,0.00,WeatherDisplay:10.37,2013-05-15 16:50:00,
2013-05-15 11:55:00,79.0,58.2,29.98,SSW,202,8.1,8.1,49,0.00,CLR,SKC,0.00,WeatherDisplay:10.37,2013-05-15 16:55:00,
2013-05-15 12:00:00,78.8,58.0,29.98,SSE,158,11.5,11.5,49,0.00,CLR,SKC,0.00,WeatherDisplay:10.37,2013-05-15 17:00:00,
2013-05-15 12:05:00,78.8,58.0,29.98,SSE,158,9.2,9.2,49,0.00,CLR,SKC,0.00,WeatherDisplay:10.37,2013-05-15 17:05:00,
2013-05-15 12:10:00,78.8,58.0,29.98,SSE,158,9.6,9.6,49,0.00,CLR,SKC,0.00,WeatherDisplay:10.37,2013-05-15 17:10:00,
2013-05-15 12:15:00,79.3,57.4,29.97,WNW,292,6.9,6.9,47,0.00,CLR,SKC,0.00,WeatherDisplay:10.37,2013-05-15 17:15:00,
2013-05-15 12:20:00,79.7,57.1,29.97,SW,225,7.9,7.9,46,0.00,CLR,SKC,0.00,WeatherDisplay:10.37,2013-05-15 17:20:00,
2013-05-15 12:26:00,79.7,57.1,29.97,SSW,202,12.7,12.7,46,0.00,CLR,SKC,0.00,WeatherDisplay:10.37,2013-05-15 17:26:00,
2013-05-15 12:31:00,79.7,57.1,29.97,West,270,8.1,8.1,46,0.00,CLR,SKC,0.00,WeatherDisplay:10.37,2013-05-15 17:31:00,
2013-05-15 12:36:00,79.9,57.3,29.97,WSW,248,2.3,4.0,46,0.00,CLR,SKC,0.00,WeatherDisplay:10.37,2013-05-15 17:36:00,
2013-05-15 12:42:00,80.4,55.9,29.97,WSW,248,5.8,5.8,43,0.00,CLR,SKC,0.00,WeatherDisplay:10.37,2013-05-15 17:42:00,
2013-05-15 12:47:00,80.4,57.7,29.97,SSW,202,8.1,8.1,46,0.00,CLR,SKC,0.00,WeatherDisplay:10.37,2013-05-15 17:47:00,
2013-05-15 12:52:00,80.6,58.5,29.97,WSW,248,4.6,4.6,47,0.00,CLR,SKC,0.00,WeatherDisplay:10.37,2013-05-15 17:52:00,
2013-05-15 12:57:00,81.0,57.6,29.96,South,180,9.2,9.2,45,0.00,CLR,SKC,0.00,WeatherDisplay:10.37,2013-05-15 17:57:00,
2013-05-15 13:02:00,80.8,55.5,29.96,North,360,10.4,10.4,42,0.00,CLR,SKC,0.00,WeatherDisplay:10.37,2013-05-15 18:02:00,
2013-05-15 13:08:00,80.8,54.9,29.96,WSW,248,10.4,10.4,41,0.00,CLR,SKC,0.00,WeatherDisplay:10.37,2013-05-15 18:08:00,
2013-05-15 13:13:00,80.8,53.5,29.95,WSW,248,5.8,5.8,39,0.00,CLR,SKC,0.00,WeatherDisplay:10.37,2013-05-15 18:13:00,
2013-05-15 13:18:00,81.3,56.0,29.95,SSW,202,3.5,3.5,42,0.00,CLR,SKC,0.00,WeatherDisplay:10.37,2013-05-15 18:18:00,
2013-05-15 13:24:00,81.5,56.2,29.95,SW,225,5.8,5.8,42,0.00,CLR,SKC,0.00,WeatherDisplay:10.37,2013-05-15 18:24:00,
2013-05-15 13:29:00,81.9,56.5,29.95,South,180,4.6,4.6,42,0.00,CLR,SKC,0.00,WeatherDisplay:10.37,2013-05-15 18:29:00,
2013-05-15 13:34:00,81.9,57.8,29.94,SSW,202,6.9,6.9,44,0.00,CLR,SKC,0.00,WeatherDisplay:10.37,2013-05-15 18:34:00,
2013-05-15 13:39:00,81.7,53.6,29.94,SE,135,11.5,11.5,38,0.00,CLR,SKC,0.00,WeatherDisplay:10.37,2013-05-15 18:39:00,
2013-05-15 13:44:00,81.9,55.2,29.94,NW,315,5.8,6.5,40,0.00,CLR,SKC,0.00,WeatherDisplay:10.37,2013-05-15 18:44:00,
2013-05-15 13:49:00,81.7,52.9,29.94,South,180,6.9,6.9,37,0.00,CLR,SKC,0.00,WeatherDisplay:10.37,2013-05-15 18:49:00,
2013-05-15 13:55:00,82.2,55.5,29.93,SW,225,4.6,4.7,40,0.00,CLR,SKC,0.00,WeatherDisplay:10.37,2013-05-15 18:55:00,
2013-05-15 14:00:00,82.2,58.1,29.93,SW,222,5.0,6.0,44,0.00,CLR,SKC,0.00,WeatherDisplay:10.37,2013-05-15 19:00:00,
2013-05-15 14:05:00,82.5,58.4,29.93,SSW,209,5.0,6.0,44,0.00,CLR,SKC,0.00,WeatherDisplay:10.37,2013-05-15 19:05:00,
2013-05-15 14:10:00,82.6,57.8,29.93,SSW,205,5.0,5.0,43,0.00,CLR,SKC,0.00,WeatherDisplay:10.37,2013-05-15 19:10:00,
2013-05-15 14:15:00,82.6,55.8,29.93,SSE,158,8.1,8.1,40,0.00,CLR,SKC,0.00,WeatherDisplay:10.37,2013-05-15 19:15:00,
2013-05-15 14:20:00,82.2,53.4,29.93,South,180,7.0,14.0,37,0.00,CLR,SKC,0.00,WeatherDisplay:10.37,2013-05-15 19:20:00,
2013-05-15 14:25:00,82.4,53.5,29.93,SE,135,4.6,5.9,37,0.00,CLR,SKC,0.00,WeatherDisplay:10.37,2013-05-15 19:25:00,
2013-05-15 14:30:00,82.6,57.2,29.93,SW,225,8.1,8.1,42,0.00,CLR,SKC,0.00,WeatherDisplay:10.37,2013-05-15 19:30:00,
2013-05-15 14:36:00,82.8,57.3,29.93,SW,225,9.2,9.2,42,0.00,CLR,SKC,0.00,WeatherDisplay:10.37,2013-05-15 19:36:00,
2013-05-15 14:42:00,82.8,56.0,29.93,West,270,7.2,7.2,40,0.00,CLR,SKC,0.00,WeatherDisplay:10.37,2013-05-15 19:42:00,
2013-05-15 14:48:00,82.4,55.7,29.93,SSW,202,5.8,6.6,40,0.00,CLR,SKC,0.00,WeatherDisplay:10.37,2013-05-15 19:48:00,
2013-05-15 14:53:00,82.4,54.2,29.92,SSW,202,9.2,9.2,38,0.00,CLR,SKC,0.00,WeatherDisplay:10.37,2013-05-15 19:53:00,
2013-05-15 14:58:00,82.6,55.8,29.92,SSW,202,4.7,5.9,40,0.00,CLR,SKC,0.00,WeatherDisplay:10.37,2013-05-15 19:58:00,
2013-05-15 15:03:00,82.8,56.0,29.92,WSW,248,4.6,5.0,40,0.00,CLR,SKC,0.00,WeatherDisplay:10.37,2013-05-15 20:03:00,
2013-05-15 15:09:00,82.9,54.0,29.92,SSW,202,8.1,8.1,37,0.00,CLR,SKC,0.00,WeatherDisplay:10.37,2013-05-15 20:09:00,
2013-05-15 15:14:00,82.8,53.1,29.91,ENE,68,2.3,5.2,36,0.00,CLR,SKC,0.00,WeatherDisplay:10.37,2013-05-15 20:14:00,
2013-05-15 15:19:00,82.8,54.6,29.91,SE,135,5.8,5.8,38,0.00,CLR,SKC,0.00,WeatherDisplay:10.37,2013-05-15 20:19:00,
2013-05-15 15:24:00,82.9,55.4,29.91,NW,315,9.2,9.2,39,0.00,CLR,SKC,0.00,WeatherDisplay:10.37,2013-05-15 20:24:00,
2013-05-15 15:29:00,83.3,55.0,29.91,SW,225,5.8,5.8,38,0.00,CLR,SKC,0.00,WeatherDisplay:10.37,2013-05-15 20:29:00,
2013-05-15 15:35:00,83.1,54.9,29.90,SW,218,3.0,6.0,38,0.00,CLR,SKC,0.00,WeatherDisplay:10.37,2013-05-15 20:35:00,
2013-05-15 15:40:00,82.9,54.7,29.90,SW,225,5.0,6.0,38,0.00,CLR,SKC,0.00,WeatherDisplay:10.37,2013-05-15 20:40:00,
2013-05-15 15:45:00,82.8,54.6,29.90,SSW,202,5.8,5.8,38,0.00,CLR,SKC,0.00,WeatherDisplay:10.37,2013-05-15 20:45:00,
2013-05-15 15:50:00,83.1,56.3,29.90,SW,217,5.0,6.0,40,0.00,CLR,SKC,0.00,WeatherDisplay:10.37,2013-05-15 20:50:00,
2013-05-15 15:55:00,83.3,56.5,29.90,SW,225,9.2,9.2,40,0.00,CLR,SKC,0.00,WeatherDisplay:10.37,2013-05-15 20:55:00,
2013-05-15 16:00:00,83.1,54.9,29.90,SW,225,9.2,9.2,38,0.00,CLR,SKC,0.00,WeatherDisplay:10.37,2013-05-15 21:00:00,
2013-05-15 16:06:00,83.3,55.0,29.90,SW,225,5.8,5.8,38,0.00,CLR,SKC,0.00,WeatherDisplay:10.37,2013-05-15 21:06:00,
2013-05-15 16:12:00,83.1,57.0,29.89,SE,135,4.6,4.6,41,0.00,CLR,SKC,0.00,WeatherDisplay:10.37,2013-05-15 21:12:00,
2013-05-15 16:17:00,83.3,56.5,29.89,SE,135,3.5,4.6,40,0.00,CLR,SKC,0.00,WeatherDisplay:10.37,2013-05-15 21:17:00,
2013-05-15 16:22:00,82.9,54.7,29.89,East,90,4.6,4.6,38,0.00,CLR,SKC,0.00,WeatherDisplay:10.37,2013-05-15 21:22:00,
2013-05-15 16:27:00,82.6,54.4,29.89,WSW,248,10.4,10.4,38,0.00,CLR,SKC,0.00,WeatherDisplay:10.37,2013-05-15 21:27:00,
2013-05-15 16:33:00,82.2,55.5,29.90,SW,225,12.7,12.7,40,0.00,CLR,SKC,0.00,WeatherDisplay:10.37,2013-05-15 21:33:00,
2013-05-15 16:38:00,81.3,52.6,29.90,SSW,202,9.2,9.2,37,0.00,CLR,SKC,0.00,WeatherDisplay:10.37,2013-05-15 21:38:00,
2013-05-15 16:44:00,81.1,53.1,29.90,SSW,202,4.6,6.2,38,0.00,CLR,SKC,0.00,WeatherDisplay:10.37,2013-05-15 21:44:00,
2013-05-15 16:49:00,81.1,53.1,29.90,South,180,9.2,9.2,38,0.00,CLR,SKC,0.00,WeatherDisplay:10.37,2013-05-15 21:49:00,
2013-05-15 16:54:00,81.1,53.8,29.90,SW,225,3.5,3.6,39,0.00,CLR,SKC,0.00,WeatherDisplay:10.37,2013-05-15 21:54:00,
2013-05-15 17:00:00,81.1,55.2,29.90,SSW,202,4.6,4.6,41,0.00,CLR,SKC,0.00,WeatherDisplay:10.37,2013-05-15 22:00:00,
2013-05-15 17:05:00,81.1,55.2,29.90,WSW,248,4.6,4.6,41,0.00,CLR,SKC,0.00,WeatherDisplay:10.37,2013-05-15 22:05:00,
2013-05-15 17:10:00,81.1,55.2,29.90,ESE,112,3.6,3.6,41,0.00,CLR,SKC,0.00,WeatherDisplay:10.37,2013-05-15 22:10:00,
2013-05-15 17:15:00,81.5,55.5,29.90,SSW,202,4.6,4.6,41,0.00,CLR,SKC,0.00,WeatherDisplay:10.37,2013-05-15 22:15:00,
2013-05-15 17:20:00,81.1,55.2,29.90,WSW,237,2.0,7.0,41,0.00,CLR,SKC,0.00,WeatherDisplay:10.37,2013-05-15 22:20:00,
2013-05-15 17:25:00,80.4,55.2,29.90,SE,135,2.3,2.3,42,0.00,CLR,SKC,0.00,WeatherDisplay:10.37,2013-05-15 22:25:00,
2013-05-15 17:30:00,80.4,55.9,29.90,SSW,192,1.0,2.0,43,0.00,CLR,SKC,0.00,WeatherDisplay:10.37,2013-05-15 22:30:00,
2013-05-15 17:35:00,80.2,55.7,29.89,SW,225,4.6,4.6,43,0.00,CLR,SKC,0.00,WeatherDisplay:10.37,2013-05-15 22:35:00,
2013-05-15 17:41:00,80.1,56.8,29.89,West,270,2.3,2.3,45,0.00,CLR,SKC,0.00,WeatherDisplay:10.37,2013-05-15 22:41:00,
2013-05-15 17:47:00,79.9,57.3,29.89,North,360,2.6,2.6,46,0.00,CLR,SKC,0.00,WeatherDisplay:10.37,2013-05-15 22:47:00,
2013-05-15 17:52:00,79.7,57.1,29.89,SW,225,1.2,1.3,46,0.00,CLR,SKC,0.00,WeatherDisplay:10.37,2013-05-15 22:52:00,
2013-05-15 17:57:00,79.5,57.5,29.89,SW,225,2.3,2.3,47,0.00,CLR,SKC,0.00,WeatherDisplay:10.37,2013-05-15 22:57:00,
2013-05-15 18:03:00,79.5,58.1,29.89,North,360,0.0,0.6,48,0.00,CLR,SKC,0.00,WeatherDisplay:10.37,2013-05-15 23:03:00,
2013-05-15 18:08:00,79.3,57.4,29.89,WNW,292,1.2,1.2,47,0.00,CLR,SKC,0.00,WeatherDisplay:10.37,2013-05-15 23:08:00,
2013-05-15 18:13:00,78.4,59.4,29.89,NNW,338,0.0,0.1,52,0.00,CLR,SKC,0.00,WeatherDisplay:10.37,2013-05-15 23:13:00,
2013-05-15 18:18:00,77.9,59.4,29.89,NNW,338,0.0,0.1,53,0.00,CLR,SKC,0.00,WeatherDisplay:10.37,2013-05-15 23:18:00,
2013-05-15 18:24:00,77.5,59.1,29.89,NNW,338,0.0,0.0,53,0.00,CLR,SKC,0.00,WeatherDisplay:10.37,2013-05-15 23:24:00,
2013-05-15 18:29:00,77.4,59.4,29.89,NW,315,0.0,0.0,54,0.00,CLR,SKC,0.00,WeatherDisplay:10.37,2013-05-15 23:29:00,
2013-05-15 18:35:00,77.4,59.5,29.88,NW,312,0.0,0.0,54,0.00,CLR,SKC,0.00,WeatherDisplay:10.37,2013-05-15 23:35:00,
2013-05-15 18:40:00,77.0,59.6,29.88,NW,315,0.0,0.0,55,0.00,CLR,SKC,0.00,WeatherDisplay:10.37,2013-05-15 23:40:00,
2013-05-15 18:45:00,76.3,59.4,29.88,NNW,338,0.0,0.0,56,0.00,CLR,SKC,0.00,WeatherDisplay:10.37,2013-05-15 23:45:00,
2013-05-15 18:51:00,76.1,59.8,29.88,NNW,338,0.0,0.0,57,0.00,CLR,SKC,0.00,WeatherDisplay:10.37,2013-05-15 23:51:00,
2013-05-15 18:56:00,76.5,60.6,29.89,North,360,0.0,0.0,58,0.00,CLR,SKC,0.00,WeatherDisplay:10.37,2013-05-15 23:56:00,
2013-05-15 19:01:00,76.1,60.7,29.89,North,360,0.0,0.0,59,0.00,CLR,SKC,0.00,WeatherDisplay:10.37,2013-05-16 00:01:00,
2013-05-15 19:07:00,75.6,61.2,29.89,North,360,0.0,0.0,61,0.00,CLR,SKC,0.00,WeatherDisplay:10.37,2013-05-16 00:07:00,
2013-05-15 19:12:00,75.4,61.0,29.89,North,360,0.0,0.0,61,0.00,CLR,SKC,0.00,WeatherDisplay:10.37,2013-05-16 00:12:00,
2013-05-15 19:17:00,74.7,61.2,29.89,North,360,0.0,0.0,63,0.00,CLR,SKC,0.00,WeatherDisplay:10.37,2013-05-16 00:17:00,
2013-05-15 19:22:00,73.9,61.0,29.89,NNW,338,0.0,0.0,64,0.00,CLR,SKC,0.00,WeatherDisplay:10.37,2013-05-16 00:22:00,
2013-05-15 19:28:00,73.8,60.8,29.89,NNE,22,0.0,0.0,64,0.00,CLR,SKC,0.00,WeatherDisplay:10.37,2013-05-16 00:28:00,
2013-05-15 19:33:00,72.9,60.4,29.89,North,360,1.2,0.0,65,0.00,CLR,SKC,0.00,WeatherDisplay:10.37,2013-05-16 00:33:00,
2013-05-15 19:38:00,72.5,60.1,29.89,WSW,248,0.0,0.0,65,0.00,CLR,SKC,0.00,WeatherDisplay:10.37,2013-05-16 00:38:00,
2013-05-15 19:44:00,72.5,60.5,29.89,West,270,0.0,0.0,66,0.00,CLR,SKC,0.00,WeatherDisplay:10.37,2013-05-16 00:44:00,
2013-05-15 19:49:00,72.1,60.2,29.89,NNW,338,0.0,0.0,66,0.00,CLR,SKC,0.00,WeatherDisplay:10.37,2013-05-16 00:49:00,
2013-05-15 19:54:00,71.8,60.6,29.90,West,270,0.0,0.0,68,0.00,CLR,SKC,0.00,WeatherDisplay:10.37,2013-05-16 00:54:00,
2013-05-15 19:59:00,71.8,60.6,29.90,ESE,112,0.0,0.0,68,0.00,CLR,SKC,0.00,WeatherDisplay:10.37,2013-05-16 00:59:00,
2013-05-15 20:05:00,71.1,60.8,29.90,East,81,0.0,0.0,70,0.00,CLR,SKC,0.00,WeatherDisplay:10.37,2013-05-16 01:05:00,
2013-05-15 20:10:00,70.7,60.8,29.90,NNE,25,0.0,0.0,71,0.00,CLR,SKC,0.00,WeatherDisplay:10.37,2013-05-16 01:10:00,
2013-05-15 20:15:00,70.3,60.1,29.92,SE,135,0.0,0.0,70,0.00,CLR,SKC,0.00,WeatherDisplay:10.37,2013-05-16 01:15:00,
2013-05-15 20:20:00,70.0,60.1,29.92,ENE,70,0.0,0.0,71,0.00,CLR,SKC,0.00,WeatherDisplay:10.37,2013-05-16 01:20:00,
2013-05-15 20:25:00,69.4,60.0,29.92,NNE,22,0.0,0.0,72,0.00,CLR,SKC,0.00,WeatherDisplay:10.37,2013-05-16 01:25:00,
2013-05-15 20:30:00,69.3,59.8,29.92,North,1,0.0,0.0,72,0.00,CLR,SKC,0.00,WeatherDisplay:10.37,2013-05-16 01:30:00,
2013-05-15 20:35:00,68.9,59.5,29.90,SW,225,0.0,0.0,72,0.00,CLR,SKC,0.00,WeatherDisplay:10.37,2013-05-16 01:35:00,
2013-05-15 20:40:00,68.4,59.7,29.90,North,360,0.0,0.0,74,0.00,CLR,SKC,0.00,WeatherDisplay:10.37,2013-05-16 01:40:00,
2013-05-15 20:45:00,68.2,59.6,29.90,NNW,338,0.0,0.0,74,0.00,CLR,SKC,0.00,WeatherDisplay:10.37,2013-05-16 01:45:00,
2013-05-15 20:51:00,67.8,59.2,29.90,ESE,112,0.0,0.0,74,0.00,CLR,SKC,0.00,WeatherDisplay:10.37,2013-05-16 01:51:00,
2013-05-15 20:56:00,67.6,59.4,29.90,NNE,22,0.0,0.0,75,0.00,CLR,SKC,0.00,WeatherDisplay:10.37,2013-05-16 01:56:00,
2013-05-15 21:01:00,67.5,59.6,29.90,NW,315,0.0,0.0,76,0.00,CLR,SKC,0.00,WeatherDisplay:10.37,2013-05-16 02:01:00,
2013-05-15 21:07:00,67.1,59.3,29.90,NNW,338,0.0,0.0,76,0.00,CLR,SKC,0.00,WeatherDisplay:10.37,2013-05-16 02:07:00,
2013-05-15 21:12:00,66.4,58.9,29.90,WNW,292,0.0,0.0,77,0.00,CLR,SKC,0.00,WeatherDisplay:10.37,2013-05-16 02:12:00,
2013-05-15 21:18:00,66.4,58.9,29.90,SE,135,0.0,0.0,77,0.00,CLR,SKC,0.00,WeatherDisplay:10.37,2013-05-16 02:18:00,
2013-05-15 21:23:00,66.0,59.0,29.90,West,270,0.0,0.0,78,0.00,CLR,SKC,0.00,WeatherDisplay:10.37,2013-05-16 02:23:00,
2013-05-15 21:28:00,65.5,58.4,29.90,ESE,112,0.0,0.0,78,0.00,CLR,SKC,0.00,WeatherDisplay:10.37,2013-05-16 02:28:00,
2013-05-15 21:33:00,64.9,57.9,29.91,NNW,338,0.0,0.0,78,0.00,CLR,SKC,0.00,WeatherDisplay:10.37,2013-05-16 02:33:00,
2013-05-15 21:39:00,64.8,57.7,29.91,ESE,112,0.0,0.0,78,0.00,CLR,SKC,0.00,WeatherDisplay:10.37,2013-05-16 02:39:00,
2013-05-15 21:44:00,64.6,57.9,29.91,NNW,338,2.3,2.3,79,0.00,CLR,SKC,0.00,WeatherDisplay:10.37,2013-05-16 02:44:00,
2013-05-15 21:50:00,64.6,57.9,29.91,NNW,343,0.0,0.0,79,0.00,CLR,SKC,0.00,WeatherDisplay:10.37,2013-05-16 02:50:00,
2013-05-15 21:55:00,64.2,57.2,29.91,NNW,338,0.0,0.0,78,0.00,CLR,SKC,0.00,WeatherDisplay:10.37,2013-05-16 02:55:00,
2013-05-15 22:01:00,64.2,57.2,29.91,NNW,338,0.0,0.0,78,0.00,CLR,SKC,0.00,WeatherDisplay:10.37,2013-05-16 03:01:00,
2013-05-15 22:06:00,64.0,56.7,29.91,SSE,158,0.0,0.0,77,0.00,CLR,SKC,0.00,WeatherDisplay:10.37,2013-05-16 03:06:00,
2013-05-15 22:11:00,64.0,57.0,29.91,North,360,0.0,0.0,78,0.00,CLR,SKC,0.00,WeatherDisplay:10.37,2013-05-16 03:11:00,
2013-05-15 22:17:00,63.9,56.9,29.91,West,270,0.0,0.0,78,0.00,CLR,SKC,0.00,WeatherDisplay:10.37,2013-05-16 03:17:00,
2013-05-15 22:22:00,63.9,56.9,29.91,North,360,0.0,0.0,78,0.00,CLR,SKC,0.00,WeatherDisplay:10.37,2013-05-16 03:22:00,
2013-05-15 22:27:00,63.9,56.9,29.91,NW,315,0.0,0.0,78,0.00,CLR,SKC,0.00,WeatherDisplay:10.37,2013-05-16 03:27:00,
2013-05-15 22:32:00,63.5,56.5,29.91,NW,315,0.0,0.0,78,0.00,CLR,SKC,0.00,WeatherDisplay:10.37,2013-05-16 03:32:00,
2013-05-15 22:38:00,63.5,56.5,29.91,NNE,22,0.0,0.0,78,0.00,CLR,SKC,0.00,WeatherDisplay:10.37,2013-05-16 03:38:00,
2013-05-15 22:44:00,63.7,56.7,29.91,SSE,158,0.0,0.0,78,0.00,CLR,SKC,0.00,WeatherDisplay:10.37,2013-05-16 03:44:00,
2013-05-15 22:49:00,63.5,56.2,29.91,NNW,338,0.0,0.0,77,0.00,CLR,SKC,0.00,WeatherDisplay:10.37,2013-05-16 03:49:00,
2013-05-15 22:54:00,63.5,56.2,29.91,ENE,68,0.0,0.0,77,0.00,CLR,SKC,0.00,WeatherDisplay:10.37,2013-05-16 03:54:00,
2013-05-15 22:59:00,63.9,56.5,29.91,ESE,112,0.0,0.0,77,0.00,CLR,SKC,0.00,WeatherDisplay:10.37,2013-05-16 03:59:00,
2013-05-15 23:01:00,63.9,56.5,29.91,West,270,0.0,0.0,77,0.00,CLR,SKC,0.00,WeatherDisplay:10.37,2013-05-16 04:01:00,
2013-05-15 23:02:00,63.9,56.5,29.91,West,270,0.0,0.0,77,0.00,CLR,SKC,0.00,WeatherDisplay:10.37,2013-05-16 04:02:00,
2013-05-15 23:07:00,64.0,56.3,29.91,SW,225,1.4,1.4,76,0.00,CLR,SKC,0.00,WeatherDisplay:10.37,2013-05-16 04:07:00,
2013-05-15 23:12:00,64.2,56.5,29.91,NE,45,0.0,0.6,76,0.00,CLR,SKC,0.00,WeatherDisplay:10.37,2013-05-16 04:12:00,
2013-05-15 23:17:00,64.2,56.5,29.90,East,90,0.0,0.3,76,0.00,CLR,SKC,0.00,WeatherDisplay:10.37,2013-05-16 04:17:00,
2013-05-15 23:22:00,64.6,56.8,29.90,SSW,202,3.5,3.5,76,0.00,CLR,SKC,0.00,WeatherDisplay:10.37,2013-05-16 04:22:00,
2013-05-15 23:27:00,64.6,56.5,29.90,SSE,158,0.0,0.6,75,0.00,CLR,SKC,0.00,WeatherDisplay:10.37,2013-05-16 04:27:00,
2013-05-15 23:32:00,64.6,56.5,29.90,NE,45,0.0,0.6,75,0.00,CLR,SKC,0.00,WeatherDisplay:10.37,2013-05-16 04:32:00,
2013-05-15 23:37:00,64.8,56.6,29.90,WSW,248,0.0,0.1,75,0.00,CLR,SKC,0.00,WeatherDisplay:10.37,2013-05-16 04:37:00,
2013-05-15 23:42:00,64.8,56.3,29.90,SW,225,0.0,0.1,74,0.00,CLR,SKC,0.00,WeatherDisplay:10.37,2013-05-16 04:42:00,
2013-05-15 23:47:00,64.9,56.5,29.90,East,90,1.4,1.4,74,0.00,CLR,SKC,0.00,WeatherDisplay:10.37,2013-05-16 04:47:00,
2013-05-15 23:52:00,65.1,56.2,29.90,SSE,158,0.0,0.7,73,0.00,CLR,SKC,0.00,WeatherDisplay:10.37,2013-05-16 04:52:00,
2013-05-15 23:57:00,65.3,56.4,29.90,SSW,202,2.3,2.3,73,0.00,CLR,SKC,0.00,WeatherDisplay:10.37,2013-05-16 04:57:00,